Time,TemperatureF,DewpointF,PressureIn,WindDirection,WindDirectionDegrees,WindSpeedMPH,WindSpeedGustMPH,Humidity,HourlyPrecipIn,Conditions,Clouds,dailyrainin,SoftwareType,DateUTC
2013-02-15 00:00:00,32.7,26.0,29.90,South,180,0.0,4.0,76,0.00,CLR,OVC,0.01,WeatherDisplay:10.37,2013-02-15 05:00:00,
2013-02-15 00:05:00,31.6,25.8,29.90,South,180,0.0,2.0,79,0.00,RA,OVC,0.00,WeatherDisplay:10.37,2013-02-15 05:05:00,
2013-02-15 00:10:00,31.6,25.8,29.90,South,180,0.0,2.0,79,0.00,RA,OVC,0.00,WeatherDisplay:10.37,2013-02-15 05:10:00,
2013-02-15 00:15:00,31.6,25.8,29.90,South,180,0.0,2.0,79,0.00,CLR,OVC,0.00,WeatherDisplay:10.37,2013-02-15 05:15:00,
2013-02-15 00:20:00,31.6,25.8,29.90,South,180,0.0,2.0,79,0.00,CLR,OVC,0.00,WeatherDisplay:10.37,2013-02-15 05:20:00,
2013-02-15 00:25:00,31.6,25.8,29.90,South,180,0.0,2.0,79,0.00,CLR,OVC,0.00,WeatherDisplay:10.37,2013-02-15 05:25:00,
2013-02-15 00:30:00,31.6,25.8,29.90,South,180,0.0,2.0,79,0.00,CLR,OVC,0.00,WeatherDisplay:10.37,2013-02-15 05:30:00,
2013-02-15 00:35:00,30.6,25.8,29.90,South,180,0.0,1.0,82,0.00,CLR,OVC,0.00,WeatherDisplay:10.37,2013-02-15 05:35:00,
2013-02-15 00:40:00,30.6,25.8,29.90,South,180,0.0,1.0,82,0.00,CLR,OVC,0.00,WeatherDisplay:10.37,2013-02-15 05:40:00,
2013-02-15 00:45:00,30.6,25.8,29.90,South,180,0.0,1.0,82,0.00,CLR,OVC,0.00,WeatherDisplay:10.37,2013-02-15 05:45:00,
2013-02-15 00:50:00,30.6,25.8,29.90,South,180,0.0,1.0,82,0.00,CLR,OVC,0.00,WeatherDisplay:10.37,2013-02-15 05:50:00,
2013-02-15 00:55:00,30.6,25.8,29.90,South,180,0.0,1.0,82,0.00,CLR,OVC,0.00,WeatherDisplay:10.37,2013-02-15 05:55:00,
2013-02-15 01:00:00,30.6,25.8,29.90,South,180,0.0,1.0,82,0.00,CLR,OVC,0.00,WeatherDisplay:10.37,2013-02-15 06:00:00,
2013-02-15 01:05:00,30.1,25.8,29.90,South,180,0.0,2.0,84,0.00,CLR,OVC,0.00,WeatherDisplay:10.37,2013-02-15 06:05:00,
2013-02-15 01:10:00,30.1,25.8,29.90,South,180,0.0,2.0,84,0.00,CLR,OVC,0.00,WeatherDisplay:10.37,2013-02-15 06:10:00,
2013-02-15 01:15:00,30.1,25.8,29.90,South,180,0.0,2.0,84,0.00,CLR,OVC,0.00,WeatherDisplay:10.37,2013-02-15 06:15:00,
2013-02-15 01:20:00,30.1,25.8,29.90,South,180,0.0,2.0,84,0.00,CLR,OVC,0.00,WeatherDisplay:10.37,2013-02-15 06:20:00,
2013-02-15 01:25:00,30.1,25.8,29.90,South,180,0.0,2.0,84,0.00,CLR,OVC,0.00,WeatherDisplay:10.37,2013-02-15 06:25:00,
2013-02-15 01:30:00,30.1,25.8,29.90,South,180,0.0,2.0,84,0.00,CLR,OVC,0.00,WeatherDisplay:10.37,2013-02-15 06:30:00,
2013-02-15 01:35:00,30.7,27.3,29.90,South,180,0.0,3.0,87,0.00,CLR,OVC,0.00,WeatherDisplay:10.37,2013-02-15 06:35:00,
2013-02-15 01:40:00,30.7,27.3,29.90,South,180,0.0,3.0,87,0.00,CLR,OVC,0.00,WeatherDisplay:10.37,2013-02-15 06:40:00,
2013-02-15 01:45:00,30.7,27.3,29.90,South,180,0.0,3.0,87,0.00,CLR,OVC,0.00,WeatherDisplay:10.37,2013-02-15 06:45:00,
2013-02-15 01:50:00,30.7,27.3,29.90,South,180,0.0,3.0,87,0.00,CLR,OVC,0.00,WeatherDisplay:10.37,2013-02-15 06:50:00,
2013-02-15 01:55:00,30.7,27.3,29.90,South,180,0.0,3.0,87,0.00,CLR,OVC,0.00,WeatherDisplay:10.37,2013-02-15 06:55:00,
2013-02-15 02:00:00,30.7,27.3,29.90,South,180,0.0,3.0,87,0.00,CLR,OVC,0.00,WeatherDisplay:10.37,2013-02-15 07:00:00,
2013-02-15 02:05:00,31.3,28.2,29.89,South,180,0.0,2.0,88,0.00,CLR,OVC,0.00,WeatherDisplay:10.37,2013-02-15 07:05:00,
2013-02-15 02:10:00,31.3,28.2,29.89,South,180,0.0,2.0,88,0.00,CLR,OVC,0.00,WeatherDisplay:10.37,2013-02-15 07:10:00,
2013-02-15 02:15:00,31.3,28.2,29.89,South,180,0.0,2.0,88,0.00,CLR,OVC,0.00,WeatherDisplay:10.37,2013-02-15 07:15:00,
2013-02-15 02:20:00,31.3,28.2,29.89,South,180,0.0,2.0,88,0.00,CLR,OVC,0.00,WeatherDisplay:10.37,2013-02-15 07:20:00,
2013-02-15 02:25:00,31.3,28.2,29.89,South,180,0.0,2.0,88,0.00,CLR,OVC,0.00,WeatherDisplay:10.37,2013-02-15 07:25:00,
2013-02-15 02:30:00,31.3,28.2,29.89,South,180,0.0,2.0,88,0.00,CLR,OVC,0.00,WeatherDisplay:10.37,2013-02-15 07:30:00,
2013-02-15 02:35:00,31.5,28.6,29.89,South,180,0.0,2.0,89,0.00,CLR,OVC,0.00,WeatherDisplay:10.37,2013-02-15 07:35:00,
2013-02-15 02:40:00,31.5,28.6,29.89,South,180,0.0,2.0,89,0.00,CLR,OVC,0.00,WeatherDisplay:10.37,2013-02-15 07:40:00,
2013-02-15 02:45:00,31.5,28.6,29.89,South,180,0.0,2.0,89,0.00,CLR,OVC,0.00,WeatherDisplay:10.37,2013-02-15 07:45:00,
2013-02-15 02:50:00,31.5,28.6,29.89,South,180,0.0,2.0,89,0.00,CLR,OVC,0.00,WeatherDisplay:10.37,2013-02-15 07:50:00,
2013-02-15 02:55:00,31.5,28.6,29.89,South,180,0.0,2.0,89,0.00,CLR,OVC,0.00,WeatherDisplay:10.37,2013-02-15 07:55:00,
2013-02-15 03:00:00,31.5,28.6,29.89,South,180,0.0,2.0,89,0.00,CLR,OVC,0.00,WeatherDisplay:10.37,2013-02-15 08:00:00,
2013-02-15 03:05:00,31.5,28.9,29.88,South,180,0.0,2.0,90,0.00,CLR,OVC,0.00,WeatherDisplay:10.37,2013-02-15 08:05:00,
2013-02-15 03:10:00,31.5,28.9,29.88,South,180,0.0,2.0,90,0.00,CLR,OVC,0.00,WeatherDisplay:10.37,2013-02-15 08:10:00,
2013-02-15 03:15:00,31.5,28.9,29.88,South,180,0.0,2.0,90,0.00,CLR,OVC,0.00,WeatherDisplay:10.37,2013-02-15 08:15:00,
2013-02-15 03:20:00,31.5,28.9,29.88,South,180,0.0,2.0,90,0.00,CLR,OVC,0.00,WeatherDisplay:10.37,2013-02-15 08:20:00,
2013-02-15 03:25:00,31.5,28.9,29.88,South,180,0.0,2.0,90,0.00,CLR,OVC,0.00,WeatherDisplay:10.37,2013-02-15 08:25:00,
2013-02-15 03:30:00,31.5,28.9,29.88,South,180,0.0,2.0,90,0.00,CLR,OVC,0.00,WeatherDisplay:10.37,2013-02-15 08:30:00,
2013-02-15 03:35:00,31.3,29.0,29.88,South,180,0.0,0.0,91,0.00,CLR,OVC,0.00,WeatherDisplay:10.37,2013-02-15 08:35:00,
2013-02-15 03:40:00,31.3,29.0,29.88,South,180,0.0,0.0,91,0.00,CLR,OVC,0.00,WeatherDisplay:10.37,2013-02-15 08:40:00,
2013-02-15 03:45:00,31.3,29.0,29.88,South,180,0.0,0.0,91,0.00,CLR,OVC,0.00,WeatherDisplay:10.37,2013-02-15 08:45:00,
2013-02-15 03:50:00,31.3,29.0,29.88,South,180,0.0,0.0,91,0.00,CLR,OVC,0.00,WeatherDisplay:10.37,2013-02-15 08:50:00,
2013-02-15 03:55:00,31.3,29.0,29.88,South,180,0.0,0.0,91,0.00,CLR,OVC,0.00,WeatherDisplay:10.37,2013-02-15 08:55:00,
2013-02-15 04:00:00,31.3,29.0,29.88,South,180,0.0,0.0,91,0.00,CLR,OVC,0.00,WeatherDisplay:10.37,2013-02-15 09:00:00,
2013-02-15 04:05:00,31.8,29.7,29.88,South,180,0.0,3.0,92,0.00,CLR,OVC,0.00,WeatherDisplay:10.37,2013-02-15 09:05:00,
2013-02-15 04:10:00,31.8,29.7,29.88,South,180,0.0,3.0,92,0.00,CLR,OVC,0.00,WeatherDisplay:10.37,2013-02-15 09:10:00,
2013-02-15 04:15:00,31.8,29.7,29.88,South,180,0.0,3.0,92,0.00,CLR,OVC,0.00,WeatherDisplay:10.37,2013-02-15 09:15:00,
2013-02-15 04:20:00,31.8,29.7,29.88,South,180,0.0,3.0,92,0.00,CLR,OVC,0.00,WeatherDisplay:10.37,2013-02-15 09:20:00,
2013-02-15 04:25:00,31.8,29.7,29.88,South,180,0.0,3.0,92,0.00,CLR,OVC,0.00,WeatherDisplay:10.37,2013-02-15 09:25:00,
2013-02-15 04:30:00,31.8,29.7,29.88,South,180,0.0,3.0,92,0.00,CLR,OVC,0.00,WeatherDisplay:10.37,2013-02-15 09:30:00,
2013-02-15 04:35:00,32.2,30.1,29.89,South,180,0.0,2.0,92,0.00,CLR,OVC,0.00,WeatherDisplay:10.37,2013-02-15 09:35:00,
2013-02-15 04:40:00,32.2,30.1,29.89,South,180,0.0,2.0,92,0.00,CLR,OVC,0.00,WeatherDisplay:10.37,2013-02-15 09:40:00,
2013-02-15 04:45:00,32.2,30.1,29.89,South,180,0.0,2.0,92,0.00,CLR,OVC,0.00,WeatherDisplay:10.37,2013-02-15 09:45:00,
2013-02-15 04:50:00,32.2,30.1,29.89,South,180,0.0,2.0,92,0.00,CLR,OVC,0.00,WeatherDisplay:10.37,2013-02-15 09:50:00,
2013-02-15 04:55:00,32.2,30.1,29.89,South,180,0.0,2.0,92,0.00,CLR,OVC,0.00,WeatherDisplay:10.37,2013-02-15 09:55:00,
2013-02-15 05:00:00,32.2,30.1,29.89,South,180,0.0,2.0,92,0.00,CLR,OVC,0.00,WeatherDisplay:10.37,2013-02-15 10:00:00,
2013-02-15 05:05:00,33.4,31.3,29.88,South,170,1.0,9.0,92,0.00,CLR,OVC,0.00,WeatherDisplay:10.37,2013-02-15 10:05:00,
2013-02-15 05:10:00,33.4,31.3,29.88,SSE,158,1.0,9.0,92,0.00,CLR,OVC,0.00,WeatherDisplay:10.37,2013-02-15 10:10:00,
2013-02-15 05:15:00,33.4,31.3,29.88,SSE,158,1.0,9.0,92,0.00,CLR,OVC,0.00,WeatherDisplay:10.37,2013-02-15 10:15:00,
2013-02-15 05:20:00,33.4,31.3,29.88,SSE,158,1.0,9.0,92,0.00,CLR,OVC,0.00,WeatherDisplay:10.37,2013-02-15 10:20:00,
2013-02-15 05:25:00,33.4,31.3,29.88,SSE,158,1.0,9.0,92,0.00,CLR,OVC,0.00,WeatherDisplay:10.37,2013-02-15 10:25:00,
2013-02-15 05:30:00,33.4,31.3,29.88,SSE,158,1.0,9.0,92,0.00,CLR,OVC,0.00,WeatherDisplay:10.37,2013-02-15 10:30:00,
2013-02-15 05:35:00,32.8,30.5,29.89,South,169,1.0,4.0,91,0.00,CLR,OVC,0.00,WeatherDisplay:10.37,2013-02-15 10:35:00,
2013-02-15 05:40:00,32.8,30.5,29.89,South,180,1.0,4.0,91,0.00,CLR,OVC,0.00,WeatherDisplay:10.37,2013-02-15 10:40:00,
2013-02-15 05:45:00,32.8,30.5,29.89,South,180,1.0,4.0,91,0.00,CLR,OVC,0.00,WeatherDisplay:10.37,2013-02-15 10:45:00,
2013-02-15 05:50:00,32.8,30.5,29.89,South,180,1.0,4.0,91,0.00,CLR,OVC,0.00,WeatherDisplay:10.37,2013-02-15 10:50:00,
2013-02-15 05:55:00,32.8,30.5,29.89,South,180,1.0,4.0,91,0.00,CLR,OVC,0.00,WeatherDisplay:10.37,2013-02-15 10:55:00,
2013-02-15 06:00:00,32.8,30.5,29.89,South,180,1.0,4.0,91,0.00,CLR,OVC,0.00,WeatherDisplay:10.37,2013-02-15 11:00:00,
2013-02-15 06:05:00,32.7,30.4,29.89,South,180,1.0,6.0,91,0.00,CLR,OVC,0.00,WeatherDisplay:10.37,2013-02-15 11:05:00,
2013-02-15 06:10:00,32.7,30.4,29.89,South,180,1.0,6.0,91,0.00,CLR,OVC,0.00,WeatherDisplay:10.37,2013-02-15 11:10:00,
2013-02-15 06:15:00,32.7,30.4,29.89,South,180,1.0,6.0,91,0.00,CLR,OVC,0.00,WeatherDisplay:10.37,2013-02-15 11:15:00,
2013-02-15 06:20:00,32.7,30.4,29.89,South,180,1.0,6.0,91,0.00,CLR,OVC,0.00,WeatherDisplay:10.37,2013-02-15 11:20:00,
2013-02-15 06:25:00,32.7,30.4,29.89,South,180,1.0,6.0,91,0.00,CLR,OVC,0.00,WeatherDisplay:10.37,2013-02-15 11:25:00,
2013-02-15 06:30:00,32.7,30.4,29.89,South,180,1.0,6.0,91,0.00,CLR,OVC,0.00,WeatherDisplay:10.37,2013-02-15 11:30:00,
2013-02-15 06:35:00,32.5,29.9,29.88,South,180,1.0,5.0,90,0.00,CLR,OVC,0.00,WeatherDisplay:10.37,2013-02-15 11:35:00,
2013-02-15 06:40:00,32.5,29.9,29.88,South,180,1.0,5.0,90,0.00,CLR,OVC,0.00,WeatherDisplay:10.37,2013-02-15 11:40:00,
2013-02-15 06:45:00,32.5,29.9,29.88,South,180,1.0,5.0,90,0.00,CLR,OVC,0.00,WeatherDisplay:10.37,2013-02-15 11:45:00,
2013-02-15 06:50:00,32.5,29.9,29.88,South,180,1.0,5.0,90,0.00,CLR,OVC,0.00,WeatherDisplay:10.37,2013-02-15 11:50:00,
2013-02-15 06:55:00,32.5,29.9,29.88,South,180,1.0,5.0,90,0.00,CLR,OVC,0.00,WeatherDisplay:10.37,2013-02-15 11:55:00,
2013-02-15 07:00:00,32.5,29.9,29.88,South,180,1.0,5.0,90,0.00,CLR,OVC,0.00,WeatherDisplay:10.37,2013-02-15 12:00:00,
2013-02-15 07:05:00,31.9,29.3,29.88,South,180,0.0,4.0,90,0.00,CLR,OVC,0.00,WeatherDisplay:10.37,2013-02-15 12:05:00,
2013-02-15 07:10:00,31.9,29.3,29.88,South,180,0.0,4.0,90,0.00,CLR,OVC,0.00,WeatherDisplay:10.37,2013-02-15 12:10:00,
2013-02-15 07:15:00,31.9,29.3,29.88,South,180,0.0,4.0,90,0.00,CLR,OVC,0.00,WeatherDisplay:10.37,2013-02-15 12:15:00,
2013-02-15 07:20:00,31.9,29.3,29.88,South,180,0.0,4.0,90,0.00,CLR,OVC,0.00,WeatherDisplay:10.37,2013-02-15 12:20:00,
2013-02-15 07:25:00,31.9,29.3,29.88,South,180,0.0,4.0,90,0.00,CLR,OVC,0.00,WeatherDisplay:10.37,2013-02-15 12:25:00,
2013-02-15 07:30:00,31.9,29.3,29.88,South,180,0.0,4.0,90,0.00,CLR,OVC,0.00,WeatherDisplay:10.37,2013-02-15 12:30:00,
2013-02-15 07:35:00,32.2,29.9,29.89,South,180,1.0,5.0,91,0.00,CLR,OVC,0.00,WeatherDisplay:10.37,2013-02-15 12:35:00,
2013-02-15 07:40:00,32.2,29.9,29.89,South,180,1.0,5.0,91,0.00,CLR,OVC,0.00,WeatherDisplay:10.37,2013-02-15 12:40:00,
2013-02-15 07:45:00,32.2,29.9,29.89,South,180,1.0,5.0,91,0.00,CLR,OVC,0.00,WeatherDisplay:10.37,2013-02-15 12:45:00,
2013-02-15 07:50:00,32.2,29.9,29.89,South,180,1.0,5.0,91,0.00,CLR,OVC,0.00,WeatherDisplay:10.37,2013-02-15 12:50:00,
2013-02-15 07:55:00,32.2,29.9,29.89,South,180,1.0,5.0,91,0.00,CLR,OVC,0.00,WeatherDisplay:10.37,2013-02-15 12:55:00,
2013-02-15 08:00:00,32.2,29.9,29.89,South,180,1.0,5.0,91,0.00,CLR,OVC,0.00,WeatherDisplay:10.37,2013-02-15 13:00:00,
2013-02-15 08:05:00,34.0,30.8,29.90,South,180,2.0,7.0,88,0.00,CLR,OVC,0.00,WeatherDisplay:10.37,2013-02-15 13:05:00,
2013-02-15 08:10:00,34.0,30.8,29.90,South,180,2.0,7.0,88,0.00,CLR,OVC,0.00,WeatherDisplay:10.37,2013-02-15 13:10:00,
2013-02-15 08:15:00,34.0,30.8,29.90,South,180,2.0,7.0,88,0.00,CLR,OVC,0.00,WeatherDisplay:10.37,2013-02-15 13:15:00,
2013-02-15 08:20:00,34.0,30.8,29.90,South,180,2.0,7.0,88,0.00,CLR,OVC,0.00,WeatherDisplay:10.37,2013-02-15 13:20:00,
2013-02-15 08:25:00,34.0,30.8,29.90,South,180,2.0,7.0,88,0.00,CLR,OVC,0.00,WeatherDisplay:10.37,2013-02-15 13:25:00,
2013-02-15 08:30:00,34.0,30.8,29.90,South,180,2.0,7.0,88,0.00,CLR,OVC,0.00,WeatherDisplay:10.37,2013-02-15 13:30:00,
2013-02-15 08:35:00,36.5,31.2,29.90,South,180,2.0,11.0,81,0.00,CLR,OVC,0.00,WeatherDisplay:10.37,2013-02-15 13:35:00,
2013-02-15 08:40:00,36.5,31.2,29.90,South,180,2.0,11.0,81,0.00,CLR,OVC,0.00,WeatherDisplay:10.37,2013-02-15 13:40:00,
2013-02-15 08:45:00,36.5,31.2,29.90,South,180,2.0,11.0,81,0.00,CLR,OVC,0.00,WeatherDisplay:10.37,2013-02-15 13:45:00,
2013-02-15 08:50:00,36.5,31.2,29.90,South,180,2.0,11.0,81,0.00,CLR,OVC,0.00,WeatherDisplay:10.37,2013-02-15 13:50:00,
2013-02-15 08:55:00,36.5,31.2,29.90,South,180,2.0,11.0,81,0.00,CLR,OVC,0.00,WeatherDisplay:10.37,2013-02-15 13:55:00,
2013-02-15 09:00:00,36.5,31.2,29.90,South,180,2.0,11.0,81,0.00,CLR,OVC,0.00,WeatherDisplay:10.37,2013-02-15 14:00:00,
2013-02-15 09:05:00,38.0,31.1,29.90,SSW,193,3.0,13.0,76,0.00,CLR,OVC,0.00,WeatherDisplay:10.37,2013-02-15 14:05:00,
2013-02-15 09:10:00,38.0,31.1,29.90,SSW,202,3.0,13.0,76,0.00,CLR,OVC,0.00,WeatherDisplay:10.37,2013-02-15 14:10:00,
2013-02-15 09:15:00,38.0,31.1,29.90,SSW,202,3.0,13.0,76,0.00,CLR,OVC,0.00,WeatherDisplay:10.37,2013-02-15 14:15:00,
2013-02-15 09:20:00,38.0,31.1,29.90,SSW,202,3.0,13.0,76,0.00,CLR,OVC,0.00,WeatherDisplay:10.37,2013-02-15 14:20:00,
2013-02-15 09:25:00,38.0,31.1,29.90,SSW,202,3.0,13.0,76,0.00,CLR,OVC,0.00,WeatherDisplay:10.37,2013-02-15 14:25:00,
2013-02-15 09:30:00,38.0,31.1,29.90,SSW,202,3.0,13.0,76,0.00,CLR,OVC,0.00,WeatherDisplay:10.37,2013-02-15 14:30:00,
2013-02-15 09:35:00,40.1,32.1,29.91,SSW,193,2.0,10.0,73,0.00,CLR,OVC,0.00,WeatherDisplay:10.37,2013-02-15 14:35:00,
2013-02-15 09:40:00,40.1,32.1,29.91,South,180,2.0,10.0,73,0.00,CLR,OVC,0.00,WeatherDisplay:10.37,2013-02-15 14:40:00,
2013-02-15 09:45:00,40.1,32.1,29.91,South,180,2.0,10.0,73,0.00,CLR,OVC,0.00,WeatherDisplay:10.37,2013-02-15 14:45:00,
2013-02-15 09:50:00,40.1,32.1,29.91,South,180,2.0,10.0,73,0.00,CLR,OVC,0.00,WeatherDisplay:10.37,2013-02-15 14:50:00,
2013-02-15 09:55:00,40.1,32.1,29.91,South,180,2.0,10.0,73,0.00,CLR,OVC,0.00,WeatherDisplay:10.37,2013-02-15 14:55:00,
2013-02-15 10:00:00,40.1,32.1,29.91,South,180,2.0,10.0,73,0.00,CLR,OVC,0.00,WeatherDisplay:10.37,2013-02-15 15:00:00,
2013-02-15 10:05:00,41.8,32.4,29.90,South,191,2.0,14.0,69,0.00,CLR,OVC,0.00,WeatherDisplay:10.37,2013-02-15 15:05:00,
2013-02-15 10:10:00,41.8,32.4,29.90,SSW,202,2.0,14.0,69,0.00,CLR,OVC,0.00,WeatherDisplay:10.37,2013-02-15 15:10:00,
2013-02-15 10:15:00,41.8,32.4,29.90,SSW,202,2.0,14.0,69,0.00,CLR,OVC,0.00,WeatherDisplay:10.37,2013-02-15 15:15:00,
2013-02-15 10:20:00,41.8,32.4,29.90,SSW,202,2.0,14.0,69,0.00,CLR,OVC,0.00,WeatherDisplay:10.37,2013-02-15 15:20:00,
2013-02-15 10:25:00,41.8,32.4,29.90,SSW,202,2.0,14.0,69,0.00,CLR,OVC,0.00,WeatherDisplay:10.37,2013-02-15 15:25:00,
2013-02-15 10:30:00,41.8,32.4,29.90,SSW,202,2.0,14.0,69,0.00,CLR,OVC,0.00,WeatherDisplay:10.37,2013-02-15 15:30:00,
2013-02-15 10:35:00,43.3,32.3,29.91,South,180,2.0,6.0,65,0.00,CLR,OVC,0.00,WeatherDisplay:10.37,2013-02-15 15:35:00,
2013-02-15 10:40:00,43.3,32.3,29.91,SSE,158,2.0,6.0,65,0.00,CLR,OVC,0.00,WeatherDisplay:10.37,2013-02-15 15:40:00,
2013-02-15 10:45:00,43.3,32.3,29.91,SSE,158,2.0,6.0,65,0.00,CLR,OVC,0.00,WeatherDisplay:10.37,2013-02-15 15:45:00,
2013-02-15 10:50:00,43.3,32.3,29.91,SSE,158,2.0,6.0,65,0.00,CLR,OVC,0.00,WeatherDisplay:10.37,2013-02-15 15:50:00,
2013-02-15 10:55:00,43.3,32.3,29.91,SSE,158,2.0,6.0,65,0.00,CLR,OVC,0.00,WeatherDisplay:10.37,2013-02-15 15:55:00,
2013-02-15 11:00:00,43.3,32.3,29.91,SSE,158,2.0,6.0,65,0.00,CLR,OVC,0.00,WeatherDisplay:10.37,2013-02-15 16:00:00,
2013-02-15 11:05:00,45.2,32.5,29.90,South,185,3.0,9.0,61,0.00,CLR,OVC,0.00,WeatherDisplay:10.37,2013-02-15 16:05:00,
2013-02-15 11:10:00,45.2,32.5,29.90,SSW,202,3.0,9.0,61,0.00,CLR,OVC,0.00,WeatherDisplay:10.37,2013-02-15 16:10:00,
2013-02-15 11:15:00,45.2,32.5,29.90,SSW,202,3.0,9.0,61,0.00,CLR,OVC,0.00,WeatherDisplay:10.37,2013-02-15 16:15:00,
2013-02-15 11:20:00,45.2,32.5,29.90,SSW,202,3.0,9.0,61,0.00,CLR,OVC,0.00,WeatherDisplay:10.37,2013-02-15 16:20:00,
2013-02-15 11:25:00,45.2,32.5,29.90,SSW,202,3.0,9.0,61,0.00,CLR,OVC,0.00,WeatherDisplay:10.37,2013-02-15 16:25:00,
2013-02-15 11:30:00,45.2,32.5,29.90,SSW,202,3.0,9.0,61,0.00,CLR,OVC,0.00,WeatherDisplay:10.37,2013-02-15 16:30:00,
2013-02-15 11:35:00,46.7,33.1,29.89,SSW,202,3.0,10.0,59,0.00,CLR,OVC,0.00,WeatherDisplay:10.37,2013-02-15 16:35:00,
2013-02-15 11:40:00,46.7,33.1,29.89,SSW,202,3.0,10.0,59,0.00,CLR,OVC,0.00,WeatherDisplay:10.37,2013-02-15 16:40:00,
2013-02-15 11:45:00,46.7,33.1,29.89,SSW,202,3.0,10.0,59,0.00,CLR,OVC,0.00,WeatherDisplay:10.37,2013-02-15 16:45:00,
2013-02-15 11:50:00,46.7,33.1,29.89,SSW,202,3.0,10.0,59,0.00,CLR,OVC,0.00,WeatherDisplay:10.37,2013-02-15 16:50:00,
2013-02-15 11:55:00,46.7,33.1,29.89,SSW,202,3.0,10.0,59,0.00,CLR,OVC,0.00,WeatherDisplay:10.37,2013-02-15 16:55:00,
2013-02-15 12:00:00,46.7,33.1,29.89,SSW,202,3.0,10.0,59,0.00,CLR,OVC,0.00,WeatherDisplay:10.37,2013-02-15 17:00:00,
2013-02-15 12:05:00,47.9,32.9,29.87,South,189,3.0,13.0,56,0.00,CLR,OVC,0.00,WeatherDisplay:10.37,2013-02-15 17:05:00,
2013-02-15 12:10:00,47.9,32.9,29.87,South,180,3.0,13.0,56,0.00,CLR,OVC,0.00,WeatherDisplay:10.37,2013-02-15 17:10:00,
2013-02-15 12:15:00,47.9,32.9,29.87,South,180,3.0,13.0,56,0.00,CLR,OVC,0.00,WeatherDisplay:10.37,2013-02-15 17:15:00,
2013-02-15 12:20:00,47.9,32.9,29.87,South,180,3.0,13.0,56,0.00,CLR,OVC,0.00,WeatherDisplay:10.37,2013-02-15 17:20:00,
2013-02-15 12:25:00,47.9,32.9,29.87,South,180,3.0,13.0,56,0.00,CLR,OVC,0.00,WeatherDisplay:10.37,2013-02-15 17:25:00,
2013-02-15 12:30:00,47.9,32.9,29.87,South,180,3.0,13.0,56,0.00,CLR,OVC,0.00,WeatherDisplay:10.37,2013-02-15 17:30:00,
2013-02-15 12:35:00,48.6,33.1,29.86,South,180,5.0,15.0,55,0.00,CLR,OVC,0.00,WeatherDisplay:10.37,2013-02-15 17:35:00,
2013-02-15 12:40:00,48.6,33.1,29.86,South,180,5.0,15.0,55,0.00,CLR,OVC,0.00,WeatherDisplay:10.37,2013-02-15 17:40:00,
2013-02-15 12:45:00,48.6,33.1,29.86,South,180,5.0,15.0,55,0.00,CLR,OVC,0.00,WeatherDisplay:10.37,2013-02-15 17:45:00,
2013-02-15 12:50:00,48.6,33.1,29.86,South,180,5.0,15.0,55,0.00,CLR,OVC,0.00,WeatherDisplay:10.37,2013-02-15 17:50:00,
2013-02-15 12:55:00,48.6,33.1,29.86,South,180,5.0,15.0,55,0.00,CLR,OVC,0.00,WeatherDisplay:10.37,2013-02-15 17:55:00,
2013-02-15 13:00:00,48.6,33.1,29.86,South,180,5.0,15.0,55,0.00,CLR,OVC,0.00,WeatherDisplay:10.37,2013-02-15 18:00:00,
2013-02-15 13:05:00,49.4,33.4,29.85,South,180,3.0,14.0,54,0.00,CLR,OVC,0.00,WeatherDisplay:10.37,2013-02-15 18:05:00,
2013-02-15 13:10:00,49.4,33.4,29.85,South,180,3.0,14.0,54,0.00,CLR,OVC,0.00,WeatherDisplay:10.37,2013-02-15 18:10:00,
2013-02-15 13:15:00,49.4,33.4,29.85,South,180,3.0,14.0,54,0.00,CLR,OVC,0.00,WeatherDisplay:10.37,2013-02-15 18:15:00,
2013-02-15 13:20:00,49.4,33.4,29.85,South,180,3.0,14.0,54,0.00,CLR,OVC,0.00,WeatherDisplay:10.37,2013-02-15 18:20:00,
2013-02-15 13:25:00,49.4,33.4,29.85,South,180,3.0,14.0,54,0.00,CLR,OVC,0.00,WeatherDisplay:10.37,2013-02-15 18:25:00,
2013-02-15 13:30:00,49.4,33.4,29.85,South,180,3.0,14.0,54,0.00,CLR,OVC,0.00,WeatherDisplay:10.37,2013-02-15 18:30:00,
2013-02-15 13:35:00,49.8,33.3,29.84,South,180,3.0,16.0,53,0.00,CLR,OVC,0.00,WeatherDisplay:10.37,2013-02-15 18:35:00,
2013-02-15 13:40:00,49.8,33.3,29.84,South,180,3.0,16.0,53,0.00,CLR,OVC,0.00,WeatherDisplay:10.37,2013-02-15 18:40:00,
2013-02-15 13:45:00,49.8,33.3,29.84,South,180,3.0,16.0,53,0.00,CLR,OVC,0.00,WeatherDisplay:10.37,2013-02-15 18:45:00,
2013-02-15 13:50:00,49.8,33.3,29.84,South,180,3.0,16.0,53,0.00,CLR,OVC,0.00,WeatherDisplay:10.37,2013-02-15 18:50:00,
2013-02-15 13:55:00,49.8,33.3,29.84,South,180,3.0,16.0,53,0.00,CLR,OVC,0.00,WeatherDisplay:10.37,2013-02-15 18:55:00,
2013-02-15 14:00:00,49.8,33.3,29.84,South,180,3.0,16.0,53,0.00,CLR,OVC,0.00,WeatherDisplay:10.37,2013-02-15 19:00:00,
2013-02-15 14:05:00,50.1,33.6,29.83,SSW,192,5.0,16.0,53,0.00,CLR,OVC,0.00,WeatherDisplay:10.37,2013-02-15 19:05:00,
2013-02-15 14:10:00,50.1,33.6,29.83,SSW,202,5.0,16.0,53,0.00,CLR,OVC,0.00,WeatherDisplay:10.37,2013-02-15 19:10:00,
2013-02-15 14:15:00,50.1,33.6,29.83,SSW,202,5.0,16.0,53,0.00,CLR,OVC,0.00,WeatherDisplay:10.37,2013-02-15 19:15:00,
2013-02-15 14:20:00,50.1,33.6,29.83,SSW,202,5.0,16.0,53,0.00,CLR,OVC,0.00,WeatherDisplay:10.37,2013-02-15 19:20:00,
2013-02-15 14:25:00,50.1,33.6,29.83,SSW,202,5.0,16.0,53,0.00,CLR,OVC,0.00,WeatherDisplay:10.37,2013-02-15 19:25:00,
2013-02-15 14:30:00,50.1,33.6,29.83,SSW,202,5.0,16.0,53,0.00,CLR,OVC,0.00,WeatherDisplay:10.37,2013-02-15 19:30:00,
2013-02-15 14:35:00,50.8,33.8,29.83,SSW,194,3.0,12.0,52,0.00,CLR,OVC,0.00,WeatherDisplay:10.37,2013-02-15 19:35:00,
2013-02-15 14:40:00,50.8,33.8,29.83,South,180,3.0,12.0,52,0.00,CLR,OVC,0.00,WeatherDisplay:10.37,2013-02-15 19:40:00,
2013-02-15 14:45:00,50.8,33.8,29.83,South,180,3.0,12.0,52,0.00,CLR,OVC,0.00,WeatherDisplay:10.37,2013-02-15 19:45:00,
2013-02-15 14:50:00,50.8,33.8,29.83,South,180,3.0,12.0,52,0.00,CLR,OVC,0.00,WeatherDisplay:10.37,2013-02-15 19:50:00,
2013-02-15 14:55:00,50.8,33.8,29.83,South,180,3.0,12.0,52,0.00,CLR,OVC,0.00,WeatherDisplay:10.37,2013-02-15 19:55:00,
2013-02-15 15:00:00,50.8,33.8,29.83,South,180,3.0,12.0,52,0.00,CLR,OVC,0.00,WeatherDisplay:10.37,2013-02-15 20:00:00,
2013-02-15 15:05:00,50.4,33.9,29.83,South,180,3.0,12.0,53,0.00,CLR,OVC,0.00,WeatherDisplay:10.37,2013-02-15 20:05:00,
2013-02-15 15:10:00,50.4,33.9,29.83,South,180,3.0,12.0,53,0.00,CLR,OVC,0.00,WeatherDisplay:10.37,2013-02-15 20:10:00,
2013-02-15 15:15:00,50.4,33.9,29.83,South,180,3.0,12.0,53,0.00,CLR,OVC,0.00,WeatherDisplay:10.37,2013-02-15 20:15:00,
2013-02-15 15:20:00,50.4,33.9,29.83,South,180,3.0,12.0,53,0.00,CLR,OVC,0.00,WeatherDisplay:10.37,2013-02-15 20:20:00,
2013-02-15 15:25:00,50.4,33.9,29.83,South,180,3.0,12.0,53,0.00,CLR,OVC,0.00,WeatherDisplay:10.37,2013-02-15 20:25:00,
2013-02-15 15:30:00,50.4,33.9,29.83,South,180,3.0,12.0,53,0.00,CLR,OVC,0.00,WeatherDisplay:10.37,2013-02-15 20:30:00,
2013-02-15 15:35:00,48.5,32.6,29.83,South,180,2.0,9.0,54,0.00,CLR,OVC,0.00,WeatherDisplay:10.37,2013-02-15 20:35:00,
2013-02-15 15:40:00,48.5,32.6,29.83,South,180,2.0,9.0,54,0.00,CLR,OVC,0.00,WeatherDisplay:10.37,2013-02-15 20:40:00,
2013-02-15 15:45:00,48.5,32.6,29.83,South,180,2.0,9.0,54,0.00,CLR,OVC,0.00,WeatherDisplay:10.37,2013-02-15 20:45:00,
2013-02-15 15:50:00,48.5,32.6,29.83,South,180,2.0,9.0,54,0.00,CLR,OVC,0.00,WeatherDisplay:10.37,2013-02-15 20:50:00,
2013-02-15 15:55:00,48.5,32.6,29.83,South,180,2.0,9.0,54,0.00,CLR,OVC,0.00,WeatherDisplay:10.37,2013-02-15 20:55:00,
2013-02-15 16:00:00,48.5,32.6,29.83,South,180,2.0,9.0,54,0.00,CLR,OVC,0.00,WeatherDisplay:10.37,2013-02-15 21:00:00,
2013-02-15 16:05:00,47.6,32.2,29.82,South,191,2.0,7.0,55,0.00,CLR,OVC,0.00,WeatherDisplay:10.37,2013-02-15 21:05:00,
2013-02-15 16:10:00,47.6,32.2,29.82,SSW,202,2.0,7.0,55,0.00,CLR,OVC,0.00,WeatherDisplay:10.37,2013-02-15 21:10:00,
2013-02-15 16:15:00,47.6,32.2,29.82,SSW,202,2.0,7.0,55,0.00,CLR,OVC,0.00,WeatherDisplay:10.37,2013-02-15 21:15:00,
2013-02-15 16:20:00,47.6,32.2,29.82,SSW,202,2.0,7.0,55,0.00,CLR,OVC,0.00,WeatherDisplay:10.37,2013-02-15 21:20:00,
2013-02-15 16:25:00,47.6,32.2,29.82,SSW,202,2.0,7.0,55,0.00,CLR,OVC,0.00,WeatherDisplay:10.37,2013-02-15 21:25:00,
2013-02-15 16:30:00,47.6,32.2,29.82,SSW,202,2.0,7.0,55,0.00,CLR,OVC,0.00,WeatherDisplay:10.37,2013-02-15 21:30:00,
2013-02-15 16:35:00,46.4,32.4,29.82,South,191,2.0,8.0,58,0.00,CLR,OVC,0.00,WeatherDisplay:10.37,2013-02-15 21:35:00,
2013-02-15 16:40:00,46.4,32.4,29.82,South,180,2.0,8.0,58,0.00,CLR,OVC,0.00,WeatherDisplay:10.37,2013-02-15 21:40:00,
2013-02-15 16:45:00,46.4,32.4,29.82,South,180,2.0,8.0,58,0.00,CLR,OVC,0.00,WeatherDisplay:10.37,2013-02-15 21:45:00,
2013-02-15 16:50:00,46.4,32.4,29.82,South,180,2.0,8.0,58,0.00,CLR,OVC,0.00,WeatherDisplay:10.37,2013-02-15 21:50:00,
2013-02-15 16:55:00,46.4,32.4,29.82,South,180,2.0,8.0,58,0.00,CLR,OVC,0.00,WeatherDisplay:10.37,2013-02-15 21:55:00,
2013-02-15 17:00:00,46.4,32.4,29.82,South,180,2.0,8.0,58,0.00,CLR,OVC,0.00,WeatherDisplay:10.37,2013-02-15 22:00:00,
2013-02-15 17:15:00,45.7,32.2,29.83,South,180,2.0,9.0,59,0.00,CLR,OVC,0.00,WeatherDisplay:10.37,2013-02-15 22:15:00,
2013-02-15 17:20:00,45.7,32.2,29.83,South,180,2.0,9.0,59,0.00,CLR,OVC,0.00,WeatherDisplay:10.37,2013-02-15 22:20:00,
2013-02-15 17:25:00,45.7,32.2,29.83,South,180,2.0,9.0,59,0.00,CLR,OVC,0.00,WeatherDisplay:10.37,2013-02-15 22:25:00,
2013-02-15 17:30:00,45.7,32.2,29.83,South,180,2.0,9.0,59,0.00,CLR,OVC,0.00,WeatherDisplay:10.37,2013-02-15 22:30:00,
2013-02-15 17:35:00,43.8,32.0,29.84,South,180,1.0,4.0,63,0.00,CLR,OVC,0.00,WeatherDisplay:10.37,2013-02-15 22:35:00,
2013-02-15 17:40:00,43.8,32.0,29.84,South,180,1.0,4.0,63,0.00,CLR,OVC,0.00,WeatherDisplay:10.37,2013-02-15 22:40:00,
2013-02-15 17:45:00,43.8,32.0,29.84,South,180,1.0,4.0,63,0.00,CLR,OVC,0.00,WeatherDisplay:10.37,2013-02-15 22:45:00,
2013-02-15 17:50:00,43.8,32.0,29.84,South,180,1.0,4.0,63,0.00,CLR,OVC,0.00,WeatherDisplay:10.37,2013-02-15 22:50:00,
2013-02-15 17:55:00,43.8,32.0,29.84,South,180,1.0,4.0,63,0.00,CLR,OVC,0.00,WeatherDisplay:10.37,2013-02-15 22:55:00,
2013-02-15 18:00:00,43.8,32.0,29.84,South,180,1.0,4.0,63,0.00,CLR,OVC,0.00,WeatherDisplay:10.37,2013-02-15 23:00:00,
2013-02-15 18:05:00,42.6,32.4,29.84,South,180,1.0,3.0,67,0.00,CLR,OVC,0.00,WeatherDisplay:10.37,2013-02-15 23:05:00,
2013-02-15 18:10:00,42.6,32.4,29.84,South,180,1.0,3.0,67,0.00,CLR,OVC,0.00,WeatherDisplay:10.37,2013-02-15 23:10:00,
2013-02-15 18:15:00,42.6,32.4,29.84,South,180,1.0,3.0,67,0.00,CLR,OVC,0.00,WeatherDisplay:10.37,2013-02-15 23:15:00,
2013-02-15 18:20:00,42.6,32.4,29.84,South,180,1.0,3.0,67,0.00,CLR,OVC,0.00,WeatherDisplay:10.37,2013-02-15 23:20:00,
2013-02-15 18:25:00,42.6,32.4,29.84,South,180,1.0,3.0,67,0.00,CLR,OVC,0.00,WeatherDisplay:10.37,2013-02-15 23:25:00,
2013-02-15 18:30:00,42.6,32.4,29.84,South,180,1.0,3.0,67,0.00,CLR,OVC,0.00,WeatherDisplay:10.37,2013-02-15 23:30:00,
2013-02-15 18:35:00,41.2,32.5,29.84,South,180,0.0,3.0,71,0.00,CLR,OVC,0.00,WeatherDisplay:10.37,2013-02-15 23:35:00,
2013-02-15 18:40:00,41.2,32.5,29.84,South,180,0.0,3.0,71,0.00,CLR,OVC,0.00,WeatherDisplay:10.37,2013-02-15 23:40:00,
2013-02-15 18:45:00,41.2,32.5,29.84,South,180,0.0,3.0,71,0.00,CLR,OVC,0.00,WeatherDisplay:10.37,2013-02-15 23:45:00,
2013-02-15 18:50:00,41.2,32.5,29.84,South,180,0.0,3.0,71,0.00,CLR,OVC,0.00,WeatherDisplay:10.37,2013-02-15 23:50:00,
2013-02-15 18:55:00,41.2,32.5,29.84,South,180,0.0,3.0,71,0.00,CLR,OVC,0.00,WeatherDisplay:10.37,2013-02-15 23:55:00,
2013-02-15 19:00:00,41.2,32.5,29.84,South,180,0.0,3.0,71,0.00,CLR,OVC,0.00,WeatherDisplay:10.37,2013-02-16 00:00:00,
2013-02-15 19:05:00,39.8,32.2,29.84,South,180,0.0,1.0,74,0.00,CLR,OVC,0.00,WeatherDisplay:10.37,2013-02-16 00:05:00,
2013-02-15 19:10:00,39.8,32.2,29.84,South,180,0.0,1.0,74,0.00,CLR,OVC,0.00,WeatherDisplay:10.37,2013-02-16 00:10:00,
2013-02-15 19:15:00,39.8,32.2,29.84,South,180,0.0,1.0,74,0.00,CLR,OVC,0.00,WeatherDisplay:10.37,2013-02-16 00:15:00,
2013-02-15 19:20:00,39.8,32.2,29.84,South,180,0.0,1.0,74,0.00,CLR,OVC,0.00,WeatherDisplay:10.37,2013-02-16 00:20:00,
2013-02-15 19:25:00,39.8,32.2,29.84,South,180,0.0,1.0,74,0.00,CLR,OVC,0.00,WeatherDisplay:10.37,2013-02-16 00:25:00,
2013-02-15 19:30:00,39.8,32.2,29.84,South,180,0.0,1.0,74,0.00,CLR,OVC,0.00,WeatherDisplay:10.37,2013-02-16 00:30:00,
2013-02-15 19:35:00,38.9,32.6,29.84,South,180,0.0,6.0,78,0.00,CLR,OVC,0.00,WeatherDisplay:10.37,2013-02-16 00:35:00,
2013-02-15 19:40:00,38.9,32.6,29.84,South,180,0.0,6.0,78,0.00,CLR,OVC,0.00,WeatherDisplay:10.37,2013-02-16 00:40:00,
2013-02-15 19:45:00,38.9,32.6,29.84,South,180,0.0,6.0,78,0.00,CLR,OVC,0.00,WeatherDisplay:10.37,2013-02-16 00:45:00,
2013-02-15 19:50:00,38.9,32.6,29.84,South,180,0.0,6.0,78,0.00,CLR,OVC,0.00,WeatherDisplay:10.37,2013-02-16 00:50:00,
2013-02-15 19:55:00,38.9,32.6,29.84,South,180,0.0,6.0,78,0.00,CLR,OVC,0.00,WeatherDisplay:10.37,2013-02-16 00:55:00,
2013-02-15 20:00:00,38.9,32.6,29.84,South,180,0.0,6.0,78,0.00,CLR,OVC,0.00,WeatherDisplay:10.37,2013-02-16 01:00:00,
2013-02-15 20:05:00,38.2,32.3,29.84,South,180,0.0,1.0,79,0.00,CLR,OVC,0.00,WeatherDisplay:10.37,2013-02-16 01:05:00,
2013-02-15 20:10:00,38.2,32.3,29.84,South,180,0.0,1.0,79,0.00,CLR,OVC,0.00,WeatherDisplay:10.37,2013-02-16 01:10:00,
2013-02-15 20:15:00,38.2,32.3,29.84,South,180,0.0,1.0,79,0.00,CLR,OVC,0.00,WeatherDisplay:10.37,2013-02-16 01:15:00,
2013-02-15 20:20:00,38.2,32.3,29.84,South,180,0.0,1.0,79,0.00,CLR,OVC,0.00,WeatherDisplay:10.37,2013-02-16 01:20:00,
2013-02-15 20:25:00,38.2,32.3,29.84,South,180,0.0,1.0,79,0.00,CLR,OVC,0.00,WeatherDisplay:10.37,2013-02-16 01:25:00,
2013-02-15 20:30:00,38.2,32.3,29.84,South,180,0.0,1.0,79,0.00,CLR,OVC,0.00,WeatherDisplay:10.37,2013-02-16 01:30:00,
2013-02-15 20:35:00,37.2,31.9,29.85,South,180,0.0,0.0,81,0.00,CLR,OVC,0.00,WeatherDisplay:10.37,2013-02-16 01:35:00,
2013-02-15 20:40:00,37.2,31.9,29.85,South,180,0.0,0.0,81,0.00,CLR,OVC,0.00,WeatherDisplay:10.37,2013-02-16 01:40:00,
2013-02-15 20:45:00,37.2,31.9,29.85,South,180,0.0,0.0,81,0.00,CLR,OVC,0.00,WeatherDisplay:10.37,2013-02-16 01:45:00,
2013-02-15 20:50:00,37.2,31.9,29.85,South,180,0.0,0.0,81,0.00,CLR,OVC,0.00,WeatherDisplay:10.37,2013-02-16 01:50:00,
2013-02-15 20:55:00,37.2,31.9,29.85,South,180,0.0,0.0,81,0.00,CLR,OVC,0.00,WeatherDisplay:10.37,2013-02-16 01:55:00,
2013-02-15 21:00:00,37.2,31.9,29.85,South,180,0.0,0.0,81,0.00,CLR,OVC,0.00,WeatherDisplay:10.37,2013-02-16 02:00:00,
2013-02-15 21:05:00,35.9,31.2,29.84,South,180,0.0,0.0,83,0.00,CLR,OVC,0.00,WeatherDisplay:10.37,2013-02-16 02:05:00,
2013-02-15 21:10:00,35.9,31.2,29.84,South,180,0.0,0.0,83,0.00,CLR,OVC,0.00,WeatherDisplay:10.37,2013-02-16 02:10:00,
2013-02-15 21:15:00,35.9,31.2,29.84,South,180,0.0,0.0,83,0.00,CLR,OVC,0.00,WeatherDisplay:10.37,2013-02-16 02:15:00,
2013-02-15 21:20:00,35.9,31.2,29.84,South,180,0.0,0.0,83,0.00,CLR,OVC,0.00,WeatherDisplay:10.37,2013-02-16 02:20:00,
2013-02-15 21:25:00,35.9,31.2,29.84,South,180,0.0,0.0,83,0.00,CLR,OVC,0.00,WeatherDisplay:10.37,2013-02-16 02:25:00,
2013-02-15 21:30:00,35.9,31.2,29.84,South,180,0.0,0.0,83,0.00,CLR,OVC,0.00,WeatherDisplay:10.37,2013-02-16 02:30:00,
2013-02-15 21:35:00,35.3,31.5,29.85,South,180,0.0,4.0,86,0.00,CLR,OVC,0.00,WeatherDisplay:10.37,2013-02-16 02:35:00,
2013-02-15 21:40:00,35.3,31.5,29.85,South,180,0.0,4.0,86,0.00,CLR,OVC,0.00,WeatherDisplay:10.37,2013-02-16 02:40:00,
2013-02-15 21:45:00,35.3,31.5,29.85,South,180,0.0,4.0,86,0.00,CLR,OVC,0.00,WeatherDisplay:10.37,2013-02-16 02:45:00,
2013-02-15 21:50:00,35.3,31.5,29.85,South,180,0.0,4.0,86,0.00,CLR,OVC,0.00,WeatherDisplay:10.37,2013-02-16 02:50:00,
2013-02-15 21:55:00,35.3,31.5,29.85,South,180,0.0,4.0,86,0.00,CLR,OVC,0.00,WeatherDisplay:10.37,2013-02-16 02:55:00,
2013-02-15 22:00:00,35.3,31.5,29.85,South,180,0.0,4.0,86,0.00,CLR,OVC,0.00,WeatherDisplay:10.37,2013-02-16 03:00:00,
2013-02-15 22:05:00,34.4,30.6,29.85,South,180,0.0,3.0,86,0.00,CLR,OVC,0.00,WeatherDisplay:10.37,2013-02-16 03:05:00,
2013-02-15 22:10:00,34.4,30.6,29.85,South,180,0.0,3.0,86,0.00,CLR,OVC,0.00,WeatherDisplay:10.37,2013-02-16 03:10:00,
2013-02-15 22:15:00,34.4,30.6,29.85,South,180,0.0,3.0,86,0.00,CLR,OVC,0.00,WeatherDisplay:10.37,2013-02-16 03:15:00,
2013-02-15 22:20:00,34.4,30.6,29.85,South,180,0.0,3.0,86,0.00,CLR,OVC,0.00,WeatherDisplay:10.37,2013-02-16 03:20:00,
2013-02-15 22:25:00,34.4,30.6,29.85,South,180,0.0,3.0,86,0.00,CLR,OVC,0.00,WeatherDisplay:10.37,2013-02-16 03:25:00,
2013-02-15 22:30:00,34.4,30.6,29.85,South,180,0.0,3.0,86,0.00,CLR,OVC,0.00,WeatherDisplay:10.37,2013-02-16 03:30:00,
2013-02-15 22:35:00,33.5,30.0,29.84,South,180,0.0,1.0,87,0.00,CLR,OVC,0.00,WeatherDisplay:10.37,2013-02-16 03:35:00,
2013-02-15 22:40:00,33.5,30.0,29.84,South,180,0.0,1.0,87,0.00,CLR,OVC,0.00,WeatherDisplay:10.37,2013-02-16 03:40:00,
2013-02-15 22:45:00,33.5,30.0,29.84,South,180,0.0,1.0,87,0.00,CLR,OVC,0.00,WeatherDisplay:10.37,2013-02-16 03:45:00,
2013-02-15 22:50:00,33.5,30.0,29.84,South,180,0.0,1.0,87,0.00,CLR,OVC,0.00,WeatherDisplay:10.37,2013-02-16 03:50:00,
2013-02-15 22:55:00,33.5,30.0,29.84,South,180,0.0,1.0,87,0.00,CLR,OVC,0.00,WeatherDisplay:10.37,2013-02-16 03:55:00,
2013-02-15 23:00:00,33.5,30.0,29.84,South,180,0.0,1.0,87,0.00,CLR,OVC,0.00,WeatherDisplay:10.37,2013-02-16 04:00:00,
2013-02-15 23:05:00,33.5,30.3,29.83,South,180,0.0,0.0,88,0.00,CLR,OVC,0.00,WeatherDisplay:10.37,2013-02-16 04:05:00,
2013-02-15 23:10:00,33.5,30.3,29.83,South,180,0.0,0.0,88,0.00,CLR,OVC,0.00,WeatherDisplay:10.37,2013-02-16 04:10:00,
2013-02-15 23:15:00,33.5,30.3,29.83,South,180,0.0,0.0,88,0.00,CLR,OVC,0.00,WeatherDisplay:10.37,2013-02-16 04:15:00,
2013-02-15 23:20:00,33.5,30.3,29.83,South,180,0.0,0.0,88,0.00,CLR,OVC,0.00,WeatherDisplay:10.37,2013-02-16 04:20:00,
2013-02-15 23:25:00,33.5,30.3,29.83,South,180,0.0,0.0,88,0.00,CLR,OVC,0.00,WeatherDisplay:10.37,2013-02-16 04:25:00,
2013-02-15 23:30:00,33.5,30.3,29.83,South,180,0.0,0.0,88,0.00,CLR,OVC,0.00,WeatherDisplay:10.37,2013-02-16 04:30:00,
2013-02-15 23:35:00,33.8,30.9,29.85,South,180,0.0,2.0,89,0.00,CLR,OVC,0.00,WeatherDisplay:10.37,2013-02-16 04:35:00,
2013-02-15 23:40:00,33.8,30.9,29.85,South,180,0.0,2.0,89,0.00,CLR,OVC,0.00,WeatherDisplay:10.37,2013-02-16 04:40:00,
2013-02-15 23:45:00,33.8,30.9,29.85,South,180,0.0,2.0,89,0.00,CLR,OVC,0.00,WeatherDisplay:10.37,2013-02-16 04:45:00,
2013-02-15 23:50:00,33.8,30.9,29.85,South,180,0.0,2.0,89,0.00,CLR,OVC,0.00,WeatherDisplay:10.37,2013-02-16 04:50:00,
2013-02-15 23:55:00,33.8,30.9,29.85,South,180,0.0,2.0,89,0.00,CLR,OVC,0.00,WeatherDisplay:10.37,2013-02-16 04:55:00,